Riga, Latvia

11:17 PM EEST on September 23, 2017 (GMT +0300)
Riga International

Weather History for EVRA - January, 2013

Change the Weather History Date:

Thursday, January 24, 2013

  Actual Average Record
Temperature  
Mean Temperature 20 °F -  
Max Temperature 25 °F 30 °F 39 °F (2002)
Min Temperature 15 °F 21 °F -2 °F (2014)
Degree Days  
Heating Degree Days 45    
Moisture  
Dew Point 21 °F    
Average Humidity 93    
Maximum Humidity 100    
Minimum Humidity 74    
Precipitation  
Precipitation 0.01 in 0.03 in - ()
Sea Level Pressure  
Sea Level Pressure 29.89 in    
Wind  
Wind Speed 4 mph ()    
Max Wind Speed 10 mph    
Max Gust Speed -    
Visibility 5.9 miles    
Events Fog , Snow    
Averages and records for this station are not official NWS values.
T = Trace of Precipitation, MM = Missing Value Source: Averaged Metar Reports

Daily Weather History Graph

Daily Weather History Graph

Search for Another Location

Airport or City:

Trip Planner

Search our weather history database for the weather conditions in past years. The results will help you decide how hot, cold, wet, or windy it might be!

Date:

Astronomy

Jan. 24, 2013 Rise Set
Actual Time 8:37 AM EET 4:35 PM EET
Civil Twilight 7:53 AM EET 5:19 PM EET
Nautical Twilight 7:05 AM EET 6:06 PM EET
Astronomical Twilight 6:20 AM EET 6:51 PM EET
Moon 2:11 PM EET (1/24) 6:30 AM EET (1/24)
Length of Visible Light 9h 25m
Length of Day
7h 57m
Waxing Gibbous, 93% of the Moon is Illuminated
Jan 24
Waxing Gibbous
Jan 27
Full
Feb 3
Last Quarter
Feb 10
New
Feb 17
First Quarter

Hourly Weather History & Observations

Time (EET) Temp. Windchill Dew Point Humidity Pressure Visibility Wind Dir Wind Speed Gust Speed Precip Events Conditions
12:20 AM 23.0 °F 17.0 °F 23.0 °F 100% 29.86 in 6.2 mi SSW 4.6 mph - N/A   Overcast
12:50 AM 23.0 °F 18.4 °F 23.0 °F 100% 29.86 in 6.2 mi SW 3.5 mph - N/A   Overcast
1:20 AM 23.0 °F 17.0 °F 23.0 °F 100% 29.83 in 6.2 mi SW 4.6 mph - N/A   Overcast
1:50 AM 23.0 °F 18.4 °F 23.0 °F 100% 29.83 in 6.2 mi SW 3.5 mph - N/A   Overcast
2:00 AM 24 °F - 23 °F 95% 29.86 in 6 mi 2.2 mph - -  
2:20 AM 24.8 °F 20.5 °F 23.0 °F 93% 29.83 in 6.2 mi WSW 3.5 mph - N/A Snow Light Snow
2:50 AM 24.8 °F - 23.0 °F 93% 29.83 in 6.2 mi Variable 2.3 mph - N/A Snow Light Snow
3:20 AM 24.8 °F 19.1 °F 23.0 °F 93% 29.83 in 6.2 mi WSW 4.6 mph - N/A Snow Light Snow
3:50 AM 24.8 °F 20.5 °F 23.0 °F 93% 29.83 in 6.2 mi WSW 3.5 mph - N/A Snow Light Snow
4:20 AM 24.8 °F 20.5 °F 23.0 °F 93% 29.83 in 6.2 mi West 3.5 mph - N/A Snow Light Snow
4:50 AM 24.8 °F 20.5 °F 23.0 °F 93% 29.83 in 6.2 mi West 3.5 mph - N/A Snow Light Snow
5:20 AM 24.8 °F 20.5 °F 23.0 °F 93% 29.83 in 6.2 mi WSW 3.5 mph - N/A Snow Light Snow
5:50 AM 24.8 °F - 23.0 °F 93% 29.83 in 6.2 mi Variable 2.3 mph - N/A Snow Light Snow
6:20 AM 24.8 °F 20.5 °F 23.0 °F 93% 29.83 in 6.2 mi West 3.5 mph - N/A Snow Light Snow
6:50 AM 23.0 °F 18.4 °F 23.0 °F 100% 29.83 in 6.2 mi WSW 3.5 mph - N/A   Mostly Cloudy
7:20 AM 21.2 °F - 21.2 °F 100% 29.83 in 6.2 mi Variable 2.3 mph - N/A   Scattered Clouds
7:50 AM 15.8 °F 10.2 °F 15.8 °F 100% 29.83 in - SW 3.5 mph - N/A Fog Shallow Fog
8:00 AM 16 °F - 16 °F 100% 29.86 in 6 mi 2.2 mph - -   Light Sandstorm
8:20 AM 15.8 °F - 15.8 °F 100% 29.83 in 1.1 mi Variable 2.3 mph - N/A Fog Shallow Fog
8:50 AM 17.6 °F 12.3 °F 17.6 °F 100% 29.86 in - SW 3.5 mph - N/A   Clear
9:20 AM 19.4 °F - 19.4 °F 100% 29.86 in 6.2 mi Variable 2.3 mph - N/A   Partly Cloudy
9:50 AM 21.2 °F - 21.2 °F 100% 29.86 in 6.2 mi Variable 2.3 mph - N/A   Scattered Clouds
10:20 AM 23.0 °F 17.0 °F 23.0 °F 100% 29.86 in 1.1 mi WNW 4.6 mph - N/A Snow Snow
10:50 AM 23.0 °F 17.0 °F 23.0 °F 100% 29.86 in 5.0 mi WNW 4.6 mph - N/A Snow Light Snow
11:20 AM 24.8 °F 19.1 °F 24.8 °F 100% 29.86 in 5.6 mi WNW 4.6 mph - N/A Snow Light Snow
11:50 AM 24.8 °F 14.6 °F 23.0 °F 93% 29.89 in 6.2 mi North 10.4 mph - N/A   Scattered Clouds
12:20 PM 24.8 °F 16.1 °F 23.0 °F 93% 29.89 in 6.2 mi North 8.1 mph - N/A   Partly Cloudy
12:50 PM 24.8 °F 16.1 °F 23.0 °F 93% 29.89 in - North 8.1 mph - N/A   Clear
1:20 PM 24.8 °F 15.3 °F 23.0 °F 93% 29.89 in 6.2 mi North 9.2 mph - N/A   Partly Cloudy
1:50 PM 23.0 °F 13.1 °F 21.2 °F 93% 29.89 in 6.2 mi North 9.2 mph - N/A   Partly Cloudy
2:00 PM 25 °F - 21 °F 78% 29.92 in 6 mi North 6.7 mph - -   Clear
2:20 PM 24.8 °F 17.9 °F 19.4 °F 80% 29.92 in - North 5.8 mph - N/A   Clear
2:50 PM 24.8 °F 19.1 °F 17.6 °F 74% 29.92 in 6.2 mi North 4.6 mph - N/A   Partly Cloudy
3:20 PM 24.8 °F - 17.6 °F 74% 29.92 in - Variable 2.3 mph - N/A   Clear
3:50 PM 24.8 °F - 17.6 °F 74% 29.92 in 6.2 mi WNW 2.3 mph - N/A   Scattered Clouds
4:20 PM 23.0 °F - 19.4 °F 86% 29.92 in 6.2 mi Variable 2.3 mph - N/A   Mostly Cloudy
4:50 PM 23.0 °F - 19.4 °F 86% 29.92 in 6.2 mi Variable 2.3 mph - N/A Snow Light Snow
5:20 PM 21.2 °F - 19.4 °F 93% 29.92 in 6.2 mi WSW 2.3 mph - N/A Snow Light Snow
5:50 PM 19.4 °F 14.3 °F 17.6 °F 93% 29.95 in 6.2 mi WSW 3.5 mph - N/A Snow Light Snow
6:20 PM 21.2 °F 14.9 °F 19.4 °F 93% 29.95 in 6.2 mi WSW 4.6 mph - N/A Snow Light Snow
6:50 PM 21.2 °F - 19.4 °F 93% 29.95 in 6.2 mi Variable 2.3 mph - N/A Snow Light Snow
7:20 PM 21.2 °F 16.4 °F 19.4 °F 93% 29.95 in 6.2 mi West 3.5 mph - N/A   Mostly Cloudy
7:50 PM 21.2 °F - 19.4 °F 93% 29.95 in 6.2 mi Variable 2.3 mph - N/A   Mostly Cloudy
8:00 PM 21 °F - 20 °F 92% 29.97 in 6 mi 2.2 mph - -   Clear
8:20 PM 23.0 °F 18.4 °F 19.4 °F 86% 29.95 in 6.2 mi West 3.5 mph - N/A Snow Light Snow
8:50 PM 23.0 °F 18.4 °F 21.2 °F 93% 29.98 in 6.2 mi West 3.5 mph - N/A Snow Light Snow
9:20 PM 21.2 °F 16.4 °F 19.4 °F 93% 29.98 in 6.2 mi West 3.5 mph - N/A   Mostly Cloudy
9:50 PM 21.2 °F 14.9 °F 19.4 °F 93% 29.98 in 6.2 mi West 4.6 mph - N/A   Mostly Cloudy
10:20 PM 21.2 °F 16.4 °F 19.4 °F 93% 29.98 in 6.2 mi WNW 3.5 mph - N/A Snow Light Snow
10:50 PM 19.4 °F - 19.4 °F 100% 30.01 in 6.2 mi Variable 2.3 mph - N/A Snow Light Snow
11:20 PM 19.4 °F - 17.6 °F 93% 30.01 in 6.2 mi Variable 2.3 mph - N/A Snow Light Snow
11:50 PM 17.6 °F - 17.6 °F 100% 30.01 in 6.2 mi Variable 1.2 mph - N/A   Mostly Cloudy